Flag for France Weather past 2 weeks in Mulhouse, France

Now
54 °F

Fog.


Feels Like: 54 °F
Forecast: 52 / 67 °F
Wind: No wind

Location: Bale-Mulhouse

Current Time: Oct 2, 2014 at 3:02:25 AM

Latest Report: Oct 2, 2014 at 2:30 AM


Visibility: 1 mi

Pressure: 30.36 "Hg

Humidity: 94%

Dew point: 52 °F

Location of MulhouseLocation

Historic Weather in Mulhouse — Graph

°F

Mulhouse temperature yesterday

Maximum temperature yesterday: 72 °F (at 4:00 PM)
Minimum temperature yesterday: 55 °F (at 10:30 PM)
Average temperature yesterday: 62 °F

Past Weeks' High & Low Weather Summary

 TemperatureHumidityPressure
High79 °F (Sep 29, 2:30 PM)100% (Sep 17, 2:00 AM)30.36 "Hg (Sep 17, 2:00 AM)
Low39 °F (Sep 24, 4:30 AM)42% (Sep 28, 5:30 PM)29.83 "Hg (Sep 17, 4:30 PM)
Average60 °F82%30.13 "Hg
* Reported Sep 17 2:00 AM — Oct 2 2:00 AM, Mulhouse, Weather by CustomWeather, © 2014

Note: Actual official high and low records may vary slightly from our data, if they occured in-between our weather recording intervals... More about our weather records

Advertising

Mulhouse weather history for previous 24 hours

 ConditionsComfort  
Time TempWeatherWind HumidityBarometerVisibility
2:00 AM
Oct 2
52 °FFog.2 mph100%30.36 "Hg1 mi
1:30 AM54 °FFog.3 mph94%30.36 "Hg2 mi
1:00 AM54 °FFog.No wind94%30.36 "Hg3 mi
12:30 AM55 °FLight fog.No wind94%30.36 "Hg1 mi
12:00 AM55 °FPassing clouds.No wind94%30.33 "Hg5 mi
11:30 PM
Oct 1
55 °FPassing clouds.2 mph100%30.36 "Hg6 mi
11:00 PM55 °FPassing clouds.No wind100%30.36 "HgN/A
10:30 PM55 °FPassing clouds.3 mph94%30.33 "HgN/A
10:00 PM57 °FPassing clouds.5 mph94%30.33 "HgN/A
9:30 PM57 °FPassing clouds.2 mph94%30.33 "HgN/A
9:00 PM59 °FPassing clouds.5 mph88%30.33 "HgN/A
8:30 PM59 °FPassing clouds.7 mph94%30.33 "HgN/A
8:00 PM61 °FPassing clouds.3 mph83%30.30 "HgN/A
7:30 PM61 °FPassing clouds.7 mph88%30.30 "HgN/A
7:00 PM64 °FPassing clouds.3 mph78%30.30 "HgN/A
6:30 PM68 °FPassing clouds.5 mph69%30.30 "HgN/A
6:00 PM70 °FPassing clouds.3 mph64%30.30 "HgN/A
5:30 PM72 °FPassing clouds.6 mph61%30.30 "HgN/A
5:00 PM72 °FPassing clouds.6 mph57%30.30 "HgN/A
4:30 PM72 °FScattered clouds.5 mph65%30.30 "HgN/A
4:00 PM72 °FScattered clouds.5 mph61%30.30 "HgN/A
3:30 PM70 °FPassing clouds.6 mph69%30.30 "HgN/A
3:00 PM70 °FPassing clouds.5 mph64%30.30 "HgN/A
2:30 PM70 °FPassing clouds.3 mph64%30.30 "HgN/A
2:00 PM68 °FPassing clouds.5 mph73%30.33 "HgN/A
1:30 PM66 °FScattered clouds.3 mph78%30.33 "HgN/A
1:00 PM64 °FPartly sunny.3 mph83%30.33 "Hg5 mi
12:30 PM64 °FPartly sunny.3 mph83%30.33 "Hg4 mi
12:00 PM63 °FFog.3 mph88%30.33 "Hg3 mi
11:30 AM61 °FFog.5 mph94%30.33 "Hg2 mi
11:00 AM61 °FFog.5 mph94%30.33 "Hg2 mi
10:30 AM61 °FFog.3 mph94%30.33 "Hg2 mi
10:00 AM61 °FFog.5 mph94%30.33 "Hg2 mi
9:30 AM59 °FFog.6 mph100%30.33 "Hg1 mi
9:00 AM59 °FFog.5 mph100%30.33 "Hg2 mi
8:30 AM59 °FFog.6 mph94%30.30 "Hg3 mi
8:00 AM59 °FFog.6 mph94%30.30 "Hg3 mi
7:30 AM59 °FFog.5 mph100%30.30 "Hg2 mi
7:00 AM59 °FFog.3 mph100%30.30 "Hg2 mi
6:35 AM61 °FLow clouds.3 mph94%30.30 "Hg1 mi
6:00 AM61 °FFog.5 mph94%30.30 "Hg3 mi
5:30 AM61 °FFog.5 mph94%30.30 "Hg3 mi
5:00 AM61 °FFog.2 mph94%30.30 "Hg3 mi
4:30 AM61 °FFog.3 mph94%30.30 "Hg2 mi
4:00 AM61 °FFog.3 mph94%30.30 "Hg2 mi
3:30 AM59 °FFog.2 mph100%30.30 "Hg2 mi
3:00 AM59 °FFog.3 mph100%30.30 "Hg2 mi
Weather by CustomWeather, © 2014

See weather overviewHow to use our weather pages